Station History from Weather Underground


Station Historical Data
 
Daily Summary for November 17, 2019 Units:  English    Metric   Both
« Previous Day
Next Day »
Daily Weekly Monthly Yearly Custom
  Current: High: Low: Average:
Temperature: 31.5 °F 37.9 °F 31.5 °F 35.8 °F
Dew Point: 24.5 °F 33.9 °F 24.2 °F 30.6 °F
Humidity: 75% 89% 72% 82%
Wind Speed: 0mph 3mph 0mph 0.5mph
Wind Gust: 0mph 12mph - -
WindCalm - - NW
Pressure: 29.88 in 29.96 in 29.88 in -
Precipitation: 0.07 in      
Historical Graphs
 
 
Tabular Data for November 17, 2019
Time Temperature Dew Point Pressure Wind Wind Speed Wind Gust Humidity Rainfall Rate (Hourly) solar Conditions
00:00 37.8 °F 31.6 °F 29.96 in Calm     78% 0 in 0.00 W/m2 RA
00:05 37.7 °F 31.8 °F 29.96 in Calm     79% 0 in 0.00 W/m2 RA
00:10 37.5 °F 31.6 °F 29.96 in Calm     79% 0 in 0.00 W/m2 CLR
00:15 37.3 °F 31.7 °F 29.96 in Calm     80% 0 in 0.00 W/m2 RA
00:20 37.2 °F 31.9 °F 29.96 in Calm   1 mph 81% 0 in 0.00 W/m2 RA
00:25 37.1 °F 31.8 °F 29.96 in Calm     81% 0 in 0.00 W/m2
00:30 37.1 °F 32.1 °F 29.95 in Calm     82% 0 in 0.00 W/m2
00:35 37 °F 32 °F 29.95 in Calm     82% 0 in 0.00 W/m2
00:40 36.9 °F 32.2 °F 29.95 in Calm     83% 0 in 0.00 W/m2 RA
00:45 36.8 °F 32.1 °F 29.95 in Calm     83% 0 in 0.00 W/m2 RA
00:50 36.8 °F 32.1 °F 29.95 in Calm     83% 0 in 0.00 W/m2
00:55 36.7 °F 32 °F 29.95 in Calm     83% 0 in 0.00 W/m2
01:00 36.6 °F 32.2 °F 29.95 in Calm     84% 0 in 0.00 W/m2
01:05 36.6 °F 32.2 °F 29.95 in Calm     84% 0 in 0.00 W/m2
01:10 36.6 °F 32.2 °F 29.95 in Calm     84% 0 in 0.00 W/m2
01:15 36.7 °F 32.3 °F 29.95 in Calm     84% 0 in 0.00 W/m2
01:20 36.7 °F 32.6 °F 29.94 in Calm     85% 0 in 0.00 W/m2
01:25 36.7 °F 32.6 °F 29.94 in Calm     85% 0 in 0.00 W/m2
01:30 36.8 °F 32.7 °F 29.94 in Calm     85% 0 in 0.00 W/m2
01:35 36.8 °F 32.7 °F 29.93 in Calm     85% 0 in 0.00 W/m2
01:40 36.8 °F 32.7 °F 29.93 in Calm   1 mph 85% 0 in 0.00 W/m2 CLR
01:45 36.8 °F 32.7 °F 29.93 in Calm     85% 0 in 0.00 W/m2 CLR
01:50 36.8 °F 32.7 °F 29.93 in Calm   2 mph 85% 0 in 0.00 W/m2 CLR
01:55 36.8 °F 33 °F 29.93 in Calm     86% 0 in 0.00 W/m2 RA
02:00 36.8 °F 33 °F 29.93 in Calm     86% 0 in 0.00 W/m2 RA
02:05 36.8 °F 33 °F 29.93 in Calm     86% 0 in 0.00 W/m2
02:10 36.8 °F 33 °F 29.93 in Calm     86% 0 in 0.00 W/m2
02:15 36.8 °F 33 °F 29.93 in Calm   2 mph 86% 0 in 0.00 W/m2 RA
02:20 36.8 °F 33 °F 29.93 in Calm   1 mph 86% 0 in 0.00 W/m2 RA
02:25 36.8 °F 33 °F 29.93 in Calm     86% 0 in 0.00 W/m2
02:30 36.7 °F 32.9 °F 29.93 in Calm     86% 0 in 0.00 W/m2 RA
02:35 36.7 °F 32.9 °F 29.93 in Calm     86% 0 in 0.00 W/m2 RA
02:40 36.8 °F 33 °F 29.92 in Calm     86% 0 in 0.00 W/m2
02:45 36.8 °F 33 °F 29.92 in Calm     86% 0 in 0.00 W/m2 RA
02:50 36.8 °F 33 °F 29.92 in Calm     86% 0 in 0.00 W/m2 RA
02:55 36.7 °F 33.2 °F 29.92 in Calm     87% 0 in 0.00 W/m2
03:00 36.8 °F 33.3 °F 29.92 in Calm     87% 0 in 0.00 W/m2
03:05 36.8 °F 33.3 °F 29.91 in Calm     87% 0 in 0.00 W/m2
03:10 36.8 °F 33.3 °F 29.91 in Calm     87% 0 in 0.00 W/m2
03:15 36.8 °F 33.3 °F 29.91 in Calm   2 mph 87% 0 in 0.00 W/m2
03:20 36.8 °F 33.3 °F 29.91 in Calm     87% 0 in 0.00 W/m2
03:25 36.8 °F 33.3 °F 29.91 in Calm     87% 0 in 0.00 W/m2 RA
03:30 36.8 °F 33.3 °F 29.91 in Calm   1 mph 87% 0 in 0.00 W/m2 RA
03:35 36.8 °F 33.3 °F 29.91 in Calm   1 mph 87% 0 in 0.00 W/m2
03:40 36.9 °F 33.4 °F 29.91 in Calm     87% 0 in 0.00 W/m2
03:45 36.9 °F 33.4 °F 29.90 in Calm     87% 0 in 0.00 W/m2
03:50 36.8 °F 33.3 °F 29.90 in Calm     87% 0 in 0.00 W/m2
03:55 36.8 °F 33.3 °F 29.90 in Calm     87% 0 in 0.00 W/m2
04:00 36.8 °F 33.3 °F 29.90 in Calm     87% 0 in 0.00 W/m2
04:05 36.8 °F 33.3 °F 29.90 in Calm     87% 0 in 0.00 W/m2
04:10 36.8 °F 33.3 °F 29.90 in Calm     87% 0 in 0.00 W/m2
04:15 36.7 °F 33.5 °F 29.90 in Calm     88% 0 in 0.00 W/m2
04:20 36.8 °F 33.6 °F 29.90 in Calm     88% 0 in 0.00 W/m2
04:25 36.8 °F 33.6 °F 29.90 in Calm     88% 0 in 0.00 W/m2 CLR
04:30 36.8 °F 33.6 °F 29.90 in Calm     88% 0 in 0.00 W/m2 CLR
04:35 36.8 °F 33.6 °F 29.89 in Calm   1 mph 88% 0 in 0.00 W/m2 CLR
04:40 36.8 °F 33.6 °F 29.89 in Calm     88% 0 in 0.00 W/m2 CLR
04:45 36.8 °F 33.6 °F 29.89 in Calm   1 mph 88% 0 in 0.00 W/m2 CLR
04:50 36.8 °F 33.6 °F 29.89 in Calm   2 mph 88% 0 in 0.00 W/m2 CLR
04:55 36.9 °F 33.7 °F 29.89 in Calm     88% 0 in 0.00 W/m2 CLR
05:00 36.9 °F 33.7 °F 29.90 in Calm     88% 0 in 0.00 W/m2 CLR
05:05 36.9 °F 33.7 °F 29.90 in Calm     88% 0 in 0.00 W/m2 CLR
05:10 36.9 °F 33.7 °F 29.90 in Calm     88% 0 in 0.00 W/m2 CLR
05:15 36.9 °F 33.7 °F 29.90 in Calm   4 mph 88% 0 in 0.00 W/m2 CLR
05:20 36.9 °F 33.7 °F 29.90 in Calm   1 mph 88% 0 in 0.00 W/m2 CLR
05:25 36.9 °F 33.7 °F 29.90 in West 1 mph 2 mph 88% 0 in 0.00 W/m2 CLR
05:30 36.8 °F 33.6 °F 29.89 in Calm     88% 0 in 0.00 W/m2 CLR
05:35 36.8 °F 33.6 °F 29.89 in Calm   2 mph 88% 0 in 0.00 W/m2 CLR
05:40 36.8 °F 33.6 °F 29.89 in Calm     88% 0 in 0.00 W/m2 CLR
05:45 36.7 °F 33.5 °F 29.89 in Calm     88% 0 in 0.00 W/m2 CLR
05:50 36.6 °F 33.4 °F 29.89 in Calm     88% 0 in 0.00 W/m2 CLR
05:55 36.6 °F 33.4 °F 29.89 in Calm     88% 0 in 0.00 W/m2 CLR
06:00 36.6 °F 33.4 °F 29.89 in Calm     88% 0 in 0.00 W/m2 CLR
06:05 36.6 °F 33.4 °F 29.89 in Calm     88% 0 in 0.00 W/m2 CLR
06:10 36.6 °F 33.4 °F 29.89 in Calm   2 mph 88% 0 in 0.00 W/m2 CLR
06:15 36.6 °F 33.4 °F 29.89 in Calm   2 mph 88% 0 in 0.00 W/m2 CLR
06:20 36.6 °F 33.4 °F 29.89 in Calm   3 mph 88% 0 in 0.00 W/m2 CLR
06:25 36.6 °F 33.7 °F 29.89 in West 1 mph 4 mph 89% 0 in 0.00 W/m2 CLR
06:30 36.6 °F 33.7 °F 29.89 in WSW 1 mph 4 mph 89% 0 in 0.00 W/m2 CLR
06:35 36.6 °F 33.7 °F 29.89 in Calm     89% 0 in 0.00 W/m2 CLR
06:40 36.6 °F 33.7 °F 29.89 in Calm     89% 0 in 0.00 W/m2 CLR
06:45 36.6 °F 33.7 °F 29.89 in Calm   1 mph 89% 0 in 0.00 W/m2 CLR
06:50 36.6 °F 33.7 °F 29.89 in Calm     89% 0 in 0.00 W/m2 CLR
06:55 36.6 °F 33.7 °F 29.89 in Calm     89% 0 in 0.00 W/m2 CLR
07:00 36.6 °F 33.7 °F 29.89 in Calm   1 mph 89% 0 in 0.00 W/m2 OVC
07:05 36.6 °F 33.7 °F 29.89 in Calm   1 mph 89% 0 in 0.00 W/m2 OVC
07:10 36.7 °F 33.8 °F 29.89 in Calm     89% 0 in 0.00 W/m2 OVC
07:15 36.7 °F 33.8 °F 29.89 in Calm   2 mph 89% 0 in 0.00 W/m2 OVC
07:20 36.7 °F 33.8 °F 29.89 in Calm   1 mph 89% 0 in 0.00 W/m2 OVC
07:25 36.8 °F 33.9 °F 29.89 in Calm     89% 0 in 0.00 W/m2 OVC
07:30 36.8 °F 33.9 °F 29.89 in Calm   3 mph 89% 0 in 0.00 W/m2 OVC
07:35 36.8 °F 33.9 °F 29.89 in Calm     89% 0 in 0.00 W/m2 OVC
07:40 36.8 °F 33.9 °F 29.89 in Calm     89% 0 in 0.00 W/m2 OVC
07:45 36.8 °F 33.9 °F 29.89 in Calm   1 mph 89% 0 in 0.00 W/m2 OVC
07:50 36.8 °F 33.9 °F 29.89 in Calm   3 mph 89% 0 in 0.00 W/m2 OVC
07:55 36.8 °F 33.9 °F 29.89 in Calm   2 mph 89% 0 in 0.00 W/m2 OVC
08:00 36.8 °F 33.9 °F 29.89 in Calm   1 mph 89% 0 in 0.00 W/m2 OVC
08:05 36.8 °F 33.9 °F 29.90 in Calm   3 mph 89% 0 in 0.00 W/m2 OVC
08:10 36.9 °F 33.9 °F 29.90 in Calm   3 mph 89% 0 in 0.00 W/m2 OVC
08:15 36.8 °F 33.9 °F 29.90 in Calm   3 mph 89% 0 in 0.00 W/m2 OVC
08:20 36.8 °F 33.9 °F 29.90 in Calm   7 mph 89% 0 in 0.00 W/m2 OVC
08:25 36.9 °F 33.7 °F 29.91 in NW 1 mph 9 mph 88% 0 in 0.00 W/m2 OVC
08:30 36.9 °F 33.6 °F 29.90 in NW 1 mph 4 mph 88% 0 in 0.00 W/m2 OVC
08:35 36.8 °F 33.6 °F 29.90 in NW 1 mph 6 mph 88% 0 in 0.00 W/m2 OVC
08:40 36.8 °F 33.6 °F 29.90 in Calm   6 mph 88% 0 in 0.00 W/m2 OVC
08:45 36.8 °F 33.6 °F 29.90 in Calm     88% 0 in 0.00 W/m2 OVC
08:50 36.8 °F 33.6 °F 29.90 in WNW 2 mph 6 mph 88% 0 in 0.00 W/m2 OVC
08:55 36.8 °F 33.6 °F 29.90 in Calm   4 mph 88% 0 in 0.00 W/m2 OVC
09:00 36.8 °F 33.6 °F 29.90 in Calm   4 mph 88% 0 in 0.00 W/m2 OVC
09:05 36.8 °F 33.3 °F 29.91 in WNW 2 mph 5 mph 87% 0 in 0.00 W/m2 OVC
09:10 36.8 °F 33.3 °F 29.91 in WNW 2 mph 8 mph 87% 0 in 0.00 W/m2 OVC
09:15 36.7 °F 33.2 °F 29.90 in WNW 1 mph 7 mph 87% 0 in 0.00 W/m2 OVC
09:20 36.8 °F 33.3 °F 29.90 in Calm   5 mph 87% 0 in 0.00 W/m2 OVC
09:25 36.8 °F 33 °F 29.90 in WNW 2 mph 10 mph 86% 0 in 0.00 W/m2 OVC
09:30 36.8 °F 33 °F 29.90 in WNW 2 mph 7 mph 86% 0 in 0.00 W/m2 OVC
09:35 36.8 °F 33 °F 29.91 in WNW 1 mph 5 mph 86% 0 in 0.00 W/m2 OVC
09:40 36.8 °F 32.7 °F 29.91 in Calm   4 mph 85% 0 in 0.00 W/m2 OVC
09:45 36.8 °F 32.7 °F 29.90 in NW 2 mph 4 mph 85% 0 in 0.00 W/m2 OVC
09:50 36.8 °F 32.7 °F 29.90 in NW 2 mph 6 mph 85% 0 in 0.00 W/m2 OVC
09:55 36.7 °F 32.6 °F 29.90 in WNW 1 mph 4 mph 85% 0 in 0.00 W/m2 OVC
10:00 36.6 °F 32.2 °F 29.90 in Calm   4 mph 84% 0 in 0.00 W/m2 OVC
10:05 36.6 °F 32.2 °F 29.90 in NW 2 mph 4 mph 84% 0 in 0.00 W/m2 OVC
10:10 36.5 °F 32.1 °F 29.90 in NW 1 mph 6 mph 84% 0 in 0.00 W/m2 OVC
10:15 36.5 °F 32.1 °F 29.91 in NW 1 mph 3 mph 84% 0 in 0.00 W/m2 OVC
10:20 36.5 °F 31.8 °F 29.91 in Calm   6 mph 83% 0 in 0.00 W/m2 OVC
10:25 36.5 °F 31.8 °F 29.91 in WNW 1 mph 4 mph 83% 0 in 0.00 W/m2 OVC
10:30 36.5 °F 31.8 °F 29.91 in Calm   5 mph 83% 0 in 0.00 W/m2 OVC
10:35 36.5 °F 31.8 °F 29.91 in WNW 1 mph 7 mph 83% 0 in 0.00 W/m2 OVC
10:40 36.5 °F 31.9 °F 29.91 in WNW 2 mph 4 mph 83% 0 in 0.00 W/m2 OVC
10:45 36.6 °F 31.9 °F 29.91 in Calm   5 mph 83% 0 in 0.00 W/m2 OVC
10:50 36.7 °F 32 °F 29.91 in NW 1 mph 5 mph 83% 0 in 0.00 W/m2 OVC
10:55 36.8 °F 32.1 °F 29.91 in WNW 1 mph 5 mph 83% 0 in 0.00 W/m2 OVC
11:00 36.8 °F 32.1 °F 29.91 in NW 1 mph 10 mph 83% 0 in 0.00 W/m2 OVC
11:05 36.8 °F 31.8 °F 29.91 in Calm   7 mph 82% 0 in 0.00 W/m2 OVC
11:10 36.9 °F 31.9 °F 29.91 in Calm   6 mph 82% 0 in 0.00 W/m2 OVC
11:15 37 °F 32 °F 29.90 in NW 2 mph 8 mph 82% 0 in 0.00 W/m2 OVC
11:20 37 °F 31.7 °F 29.90 in Calm   4 mph 81% 0 in 0.00 W/m2 OVC
11:25 37 °F 31.7 °F 29.90 in WNW 1 mph 4 mph 81% 0 in 0.00 W/m2 OVC
11:30 37 °F 31.7 °F 29.90 in NW 2 mph 10 mph 81% 0 in 0.00 W/m2 OVC
11:35 37 °F 31.4 °F 29.90 in Calm   8 mph 80% 0 in 0.00 W/m2 OVC
11:40 37 °F 31.4 °F 29.89 in NW 2 mph 5 mph 80% 0 in 0.00 W/m2 OVC
11:45 37 °F 31.4 °F 29.90 in NW 2 mph 6 mph 80% 0 in 0.00 W/m2 OVC
11:50 37 °F 31.1 °F 29.89 in WNW 2 mph 9 mph 79% 0 in 0.00 W/m2 OVC
11:55 37 °F 31.1 °F 29.89 in WNW 1 mph 9 mph 79% 0 in 0.00 W/m2 OVC
12:00 37.2 °F 31.2 °F 29.89 in NW 2 mph 8 mph 79% 0 in 0.00 W/m2 OVC
12:05 37.3 °F 31.1 °F 29.89 in Calm   8 mph 78% 0 in 0.00 W/m2 OVC
12:10 37.5 °F 31.6 °F 29.89 in NNW 1 mph 7 mph 79% 0 in 0.00 W/m2 OVC
12:15 37.6 °F 31.4 °F 29.89 in NW 2 mph 5 mph 78% 0 in 0.00 W/m2 OVC
12:20 37.7 °F 31.5 °F 29.89 in Calm   9 mph 78% 0 in 0.00 W/m2 OVC
12:25 37.8 °F 31.6 °F 29.88 in WNW 1 mph 6 mph 78% 0 in 0.00 W/m2 OVC
12:30 37.8 °F 31.2 °F 29.89 in NW 3 mph 7 mph 77% 0 in 0.00 W/m2 OVC
12:35 37.7 °F 31.2 °F 29.88 in Calm   4 mph 77% 0 in 0.00 W/m2 OVC
12:40 37.8 °F 30.9 °F 29.88 in NW 2 mph 8 mph 76% 0 in 0.00 W/m2 OVC
12:45 37.8 °F 30.9 °F 29.88 in NW 1 mph 7 mph 76% 0 in 0.00 W/m2 OVC
12:50 37.9 °F 30.7 °F 29.88 in NW 1 mph 6 mph 75% 0 in 0.00 W/m2 OVC
12:55 37.9 °F 30.4 °F 29.88 in Calm   4 mph 74% 0 in 0.00 W/m2 OVC
13:00 37.8 °F 30.3 °F 29.88 in Calm   4 mph 74% 0 in 0.00 W/m2 OVC
13:05 37.7 °F 30.2 °F 29.88 in NW 1 mph 5 mph 74% 0 in 0.00 W/m2 OVC
13:10 37.5 °F 30 °F 29.88 in Calm   7 mph 74% 0 in 0.00 W/m2 OVC
13:15 37.1 °F 29.6 °F 29.88 in WNW 1 mph 9 mph 74% 0 in 0.00 W/m2 OVC
13:20 36.9 °F 29.4 °F 29.88 in WNW 2 mph 6 mph 74% 0 in 0.00 W/m2 OVC
13:25 36.7 °F 29.6 °F 29.88 in WNW 1 mph 4 mph 75% 0 in 0.00 W/m2 OVC
13:30 36.5 °F 29 °F 29.88 in NW 3 mph 10 mph 74% 0 in 0.00 W/m2 OVC
13:35 36.3 °F 28.8 °F 29.88 in WNW 1 mph 8 mph 74% 0 in 0.00 W/m2 OVC
13:40 36.2 °F 28.7 °F 29.88 in NW 3 mph 10 mph 74% 0 in 0.00 W/m2 OVC
13:45 36.2 °F 28.4 °F 29.88 in NW 1 mph 8 mph 73% 0 in 0.00 W/m2 OVC
13:50 36.1 °F 28.3 °F 29.88 in NW 1 mph 10 mph 73% 0 in 0.00 W/m2 OVC
13:55 36.1 °F 28.3 °F 29.88 in WNW 1 mph 6 mph 73% 0 in 0.00 W/m2 OVC
14:00 36.1 °F 27.9 °F 29.88 in NW 2 mph 10 mph 72% 0 in 0.00 W/m2 OVC
14:05 36.1 °F 27.9 °F 29.88 in NNW 2 mph 9 mph 72% 0 in 0.00 W/m2 OVC
14:10 36 °F 27.8 °F 29.88 in Calm   3 mph 72% 0 in 0.00 W/m2 OVC
14:15 36 °F 27.8 °F 29.88 in WNW 1 mph 5 mph 72% 0 in 0.00 W/m2 OVC
14:20 35.9 °F 27.7 °F 29.88 in Calm   7 mph 72% 0 in 0.00 W/m2 OVC
14:25 35.8 °F 27.7 °F 29.88 in NNW 3 mph 7 mph 72% 0 in 0.00 W/m2 OVC
14:30 35.6 °F 27.8 °F 29.88 in NNW 3 mph 9 mph 73% 0 in 0.00 W/m2 OVC
14:35 35.3 °F 27.8 °F 29.88 in NNW 1 mph 9 mph 74% 0 in 0.00 W/m2 OVC
14:40 35 °F 27.5 °F 29.88 in NNW 2 mph 12 mph 74% 0 in 0.00 W/m2 OVC
14:45 34.8 °F 27.4 °F 29.88 in NNW 2 mph 6 mph 74% 0 in 0.00 W/m2 OVC
14:50 34.6 °F 27.5 °F 29.88 in Calm   3 mph 75% 0 in 0.00 W/m2 OVC
14:55 34.5 °F 27.4 °F 29.88 in NNW 2 mph 8 mph 75% 0 in 0.00 W/m2 OVC
15:00 34.4 °F 27.3 °F 29.88 in NNW 2 mph 5 mph 75% 0 in 0.00 W/m2 OVC
15:05 34.3 °F 27.2 °F 29.89 in NNW 1 mph 6 mph 75% 0 in 0.00 W/m2 OVC
15:10 34.3 °F 27.2 °F 29.89 in NW 1 mph 6 mph 75% 0 in 0.00 W/m2 OVC
15:15 34.2 °F 26.8 °F 29.89 in Calm   6 mph 74% 0 in 0.00 W/m2 OVC
15:20 34.1 °F 27 °F 29.89 in Calm   5 mph 75% 0 in 0.00 W/m2 OVC
15:25 34 °F 26.9 °F 29.89 in NW 3 mph 9 mph 75% 0 in 0.00 W/m2 OVC
15:30 33.8 °F 26.4 °F 29.89 in NW 1 mph 4 mph 74% 0 in 0.00 W/m2 OVC
15:35 33.6 °F 26.5 °F 29.89 in NNW 1 mph 4 mph 75% 0 in 0.00 W/m2 OVC
15:40 33.5 °F 26.4 °F 29.89 in Calm   2 mph 75% 0 in 0.00 W/m2 OVC
15:45 33.4 °F 26.3 °F 29.89 in NW 1 mph 4 mph 75% 0 in 0.00 W/m2 OVC
15:50 33.3 °F 26.2 °F 29.89 in NW 1 mph 3 mph 75% 0 in 0.00 W/m2 OVC
15:55 33.3 °F 26.2 °F 29.89 in NW 1 mph 7 mph 75% 0 in 0.00 W/m2 OVC
16:00 33.2 °F 26.1 °F 29.90 in NW 1 mph 7 mph 75% 0 in 0.00 W/m2 OVC
16:05 33.2 °F 26.5 °F 29.90 in NW 1 mph 9 mph 76% 0 in 0.00 W/m2 OVC
16:10 33.1 °F 26.4 °F 29.90 in NW 2 mph 7 mph 76% 0 in 0.00 W/m2 OVC
16:15 33.1 °F 26.4 °F 29.90 in WNW 1 mph 10 mph 76% 0 in 0.00 W/m2 OVC
16:20 33 °F 26.3 °F 29.90 in Calm   6 mph 76% 0 in 0.00 W/m2 OVC
16:25 32.9 °F 26.2 °F 29.91 in NW 1 mph 5 mph 76% 0 in 0.00 W/m2 OVC
16:30 32.9 °F 26.2 °F 29.91 in NW 1 mph 6 mph 76% 0 in 0.00 W/m2 OVC
16:35 32.8 °F 26.1 °F 29.91 in NW 1 mph 5 mph 76% 0 in 0.00 W/m2 OVC
16:40 32.7 °F 26 °F 29.91 in Calm   3 mph 76% 0 in 0.00 W/m2 OVC
16:45 32.5 °F 25.5 °F 29.91 in NW 2 mph 9 mph 75% 0 in 0.00 W/m2 OVC
16:50 32.4 °F 25.4 °F 29.91 in Calm   9 mph 75% 0 in 0.00 W/m2 OVC
16:55 32.2 °F 24.9 °F 29.91 in Calm   4 mph 74% 0 in 0.00 W/m2 OVC
17:00 32.1 °F 24.7 °F 29.91 in Calm   5 mph 74% 0 in 0.00 W/m2 CLR
17:05 32.1 °F 24.7 °F 29.91 in Calm   5 mph 74% 0 in 0.00 W/m2 CLR
17:10 32 °F 24.6 °F 29.91 in Calm   4 mph 74% 0 in 0.00 W/m2 CLR
17:15 32 °F 24.6 °F 29.91 in NW 2 mph 8 mph 74% 0 in 0.00 W/m2 CLR
17:20 32 °F 24.6 °F 29.91 in Calm   2 mph 74% 0 in 0.00 W/m2 CLR
17:25 32 °F 24.6 °F 29.91 in NW 1 mph 4 mph 74% 0 in 0.00 W/m2 CLR
17:30 32 °F 24.6 °F 29.91 in NW 1 mph 5 mph 74% 0 in 0.00 W/m2 CLR
17:35 32 °F 24.6 °F 29.90 in NW 2 mph 4 mph 74% 0 in 0.00 W/m2 CLR
17:40 32 °F 24.6 °F 29.91 in NNW 2 mph 6 mph 74% 0 in 0.00 W/m2 CLR
17:45 32 °F 24.6 °F 29.90 in Calm   6 mph 74% 0 in 0.00 W/m2 CLR
17:50 32 °F 24.6 °F 29.90 in Calm   5 mph 74% 0 in 0.00 W/m2 CLR
17:55 31.9 °F 24.6 °F 29.90 in North 1 mph 3 mph 74% 0 in 0.00 W/m2 CLR
18:00 31.9 °F 24.6 °F 29.90 in Calm     74% 0 in 0.00 W/m2 CLR
18:05 31.9 °F 24.6 °F 29.90 in Calm   3 mph 74% 0 in 0.00 W/m2 CLR
18:10 31.9 °F 24.6 °F 29.90 in NW 1 mph 5 mph 74% 0 in 0.00 W/m2 CLR
18:15 31.9 °F 24.6 °F 29.89 in Calm   5 mph 74% 0 in 0.00 W/m2 CLR
18:20 31.9 °F 24.6 °F 29.89 in Calm     74% 0 in 0.00 W/m2 CLR
18:25 31.8 °F 24.5 °F 29.89 in Calm   3 mph 74% 0 in 0.00 W/m2 CLR
18:30 31.8 °F 24.5 °F 29.89 in NW 1 mph 3 mph 74% 0 in 0.00 W/m2 CLR
18:35 31.8 °F 24.5 °F 29.89 in NW 1 mph 5 mph 74% 0 in 0.00 W/m2 CLR
18:40 31.8 °F 24.5 °F 29.89 in NW 1 mph 3 mph 74% 0 in 0.00 W/m2 CLR
18:45 31.7 °F 24.4 °F 29.88 in Calm   7 mph 74% 0 in 0.00 W/m2 CLR
18:50 31.7 °F 24.4 °F 29.88 in Calm     74% 0 in 0.00 W/m2 CLR
18:55 31.7 °F 24.4 °F 29.89 in Calm   2 mph 74% 0 in 0.00 W/m2 CLR
19:00 31.7 °F 24.4 °F 29.88 in Calm   4 mph 74% 0 in 0.00 W/m2 CLR
19:05 31.7 °F 24.4 °F 29.88 in Calm   4 mph 74% 0 in 0.00 W/m2 CLR
19:10 31.6 °F 24.3 °F 29.88 in Calm   3 mph 74% 0 in 0.00 W/m2 CLR
19:15 31.6 °F 24.6 °F 29.89 in Calm     75% 0 in 0.00 W/m2 CLR
19:20 31.5 °F 24.2 °F 29.89 in Calm   2 mph 74% 0 in 0.00 W/m2 CLR
19:25 31.5 °F 24.5 °F 29.89 in Calm     75% 0 in 0.00 W/m2 CLR
19:30 31.5 °F 24.5 °F 29.88 in Calm     75% 0 in 0.00 W/m2 CLR
Coon Rapids Weather